Total_Precipitation_Accumulation
0.01 0.03 0.04 0.04 0.05 0.04 0.04 0.05 0.11 0.08 0.09 0.08 0.03 0.02 0.02 0.03 0.04 0.04 0.03 0.06 0.05 0.06 0.08 0.11 0.14 0.18 0.22 0.22 0.24 0.28 0.39 0.56 0.72 0.82 0.68 0.47 0.36 0.31 0.28 0.33 0.40 0.51 0.62 0.70
0.01 0.02 0.03 0.04 0.06 0.04 0.03 0.02 0.02 0.03 0.05 0.03 0.02 0.03 0.03 0.03 0.04 0.03 0.03 0.04 0.05 0.06 0.10 0.12 0.13 0.14 0.15 0.17 0.19 0.24 0.32 0.38 0.48 0.54 0.45 0.32 0.20 0.15 0.20 0.28 0.36 0.43 0.50 0.56
0.01 0.02 0.02 0.06 0.06 0.04 0.03 0.03 0.04 0.05 0.06 0.04 0.04 0.05 0.05 0.05 0.04 0.03 0.02 0.02 0.01 0.02 0.03 0.04 0.07 0.08 0.08 0.10 0.16 0.27 0.35 0.35 0.41 0.45 0.40 0.28 0.16 0.15 0.18 0.25 0.31 0.36 0.38 0.41
0.01 0.02 0.07 0.07 0.04 0.03 0.04 0.05 0.05 0.06 0.06 0.06 0.07 0.06 0.06 0.06 0.04 0.03 0.02 0.01 0.01 0.01 0.02 0.02 0.03 0.03 0.04 0.08 0.16 0.25 0.31 0.32 0.41 0.49 0.45 0.36 0.29 0.27 0.28 0.33 0.35 0.36 0.36 0.36
0.02 0.02 0.05 0.05 0.05 0.07 0.08 0.07 0.06 0.08 0.08 0.08 0.07 0.05 0.04 0.03 0.02 0.01 0.01 0.01 0.02 0.02 0.03 0.03 0.04 0.04 0.05 0.08 0.16 0.23 0.29 0.35 0.41 0.49 0.51 0.45 0.42 0.42 0.44 0.44 0.43 0.41 0.39 0.38
0.02 0.05 0.09 0.06 0.08 0.09 0.08 0.16 0.13 0.10 0.07 0.04 0.03 0.05 0.02 0.01 0.01 0.01 0.01 0.01 0.02 0.02 0.03 0.04 0.05 0.08 0.12 0.14 0.18 0.26 0.32 0.38 0.44 0.54 0.61 0.56 0.54 0.55 0.55 0.57 0.51 0.48 0.44 0.45
0.05 0.10 0.10 0.05 0.06 0.05 0.13 0.19 0.07 0.03 0.02 0.02 0.05 0.08 0.03 0.01 0.01 0.01 0.01 0.02 0.03 0.04 0.05 0.06 0.09 0.14 0.19 0.19 0.22 0.26 0.31 0.36 0.46 0.61 0.68 0.67 0.71 0.74 0.70 0.65 0.63 0.63 0.58 0.56
0.07 0.13 0.14 0.05 0.03 0.05 0.07 0.04 0.03 0.03 0.03 0.04 0.03 0.02 0.02 0.01 0.01 0.01 0.02 0.03 0.04 0.05 0.08 0.11 0.15 0.22 0.27 0.29 0.29 0.30 0.34 0.41 0.53 0.61 0.57 0.56 0.73 0.81 0.81 0.79 0.76 0.74 0.71 0.67
0.07 0.09 0.04 0.02 0.02 0.03 0.03 0.05 0.04 0.04 0.02 0.03 0.03 0.03 0.03 0.03 0.03 0.03 0.04 0.05 0.06 0.10 0.13 0.17 0.25 0.34 0.43 0.43 0.42 0.40 0.42 0.47 0.54 0.58 0.64 0.73 0.80 0.81 0.85 0.87 0.83 0.78 0.77 0.77
0.07 0.04 0.02 0.02 0.02 0.02 0.02 0.03 0.02 0.02 0.02 0.03 0.05 0.05 0.06 0.05 0.05 0.05 0.05 0.06 0.08 0.11 0.18 0.26 0.37 0.47 0.55 0.56 0.54 0.52 0.49 0.48 0.51 0.58 0.64 0.78 0.92 0.92 0.89 0.87 0.88 0.86 0.83 0.80
0.06 0.04 0.03 0.03 0.03 0.02 0.01 0.01 0.01 0.02 0.02 0.04 0.06 0.07 0.07 0.06 0.06 0.06 0.06 0.05 0.07 0.14 0.24 0.33 0.47 0.58 0.60 0.61 0.63 0.65 0.59 0.54 0.53 0.58 0.67 0.79 0.89 0.95 0.89 0.87 0.74 0.75 0.77 0.78
0.07 0.07 0.08 0.07 0.04 0.02 0.02 0.02 0.03 0.03 0.03 0.03 0.05 0.06 0.06 0.06 0.07 0.08 0.07 0.08 0.13 0.20 0.27 0.33 0.45 0.60 0.66 0.69 0.74 0.78 0.75 0.70 0.67 0.69 0.74 0.78 0.85 0.85 0.73 0.63 0.52 0.49 0.49 0.51
0.07 0.05 0.06 0.07 0.05 0.04 0.05 0.04 0.04 0.03 0.04 0.04 0.04 0.05 0.06 0.06 0.06 0.07 0.07 0.11 0.16 0.21 0.26 0.31 0.39 0.51 0.61 0.74 0.85 0.89 0.88 0.86 0.84 0.78 0.79 0.84 0.89 0.95 0.92 0.76 0.60 0.49 0.40 0.35
0.04 0.05 0.06 0.06 0.04 0.03 0.03 0.03 0.03 0.03 0.04 0.04 0.04 0.04 0.05 0.06 0.07 0.08 0.11 0.13 0.16 0.19 0.25 0.34 0.43 0.50 0.58 0.74 0.86 0.89 0.89 0.88 0.86 0.84 0.82 0.85 0.89 0.91 0.96 0.98 0.89 0.72 0.51 0.38
0.04 0.06 0.07 0.05 0.03 0.03 0.03 0.03 0.03 0.04 0.05 0.05 0.05 0.05 0.06 0.07 0.10 0.12 0.14 0.16 0.20 0.23 0.29 0.38 0.49 0.56 0.68 0.81 0.88 0.88 0.87 0.85 0.82 0.83 0.84 0.83 0.85 0.86 0.85 0.90 0.90 0.85 0.70 0.52
0.05 0.05 0.05 0.04 0.04 0.04 0.05 0.06 0.06 0.07 0.07 0.07 0.07 0.07 0.08 0.09 0.11 0.13 0.15 0.21 0.30 0.34 0.40 0.51 0.58 0.62 0.76 0.88 0.94 0.92 0.88 0.80 0.74 0.74 0.79 0.81 0.82 0.83 0.80 0.85 0.84 0.85 0.75 0.60
0.07 0.06 0.05 0.05 0.06 0.07 0.08 0.09 0.09 0.09 0.10 0.10 0.10 0.09 0.10 0.11 0.16 0.20 0.22 0.25 0.32 0.39 0.48 0.62 0.65 0.65 0.78 0.92 1.00 0.98 0.91 0.81 0.67 0.66 0.70 0.75 0.79 0.80 0.78 0.77 0.77 0.79 0.69 0.51
0.06 0.06 0.06 0.07 0.08 0.10 0.11 0.12 0.13 0.13 0.14 0.15 0.14 0.15 0.18 0.25 0.34 0.40 0.41 0.41 0.45 0.42 0.45 0.57 0.62 0.68 0.77 0.87 0.94 0.98 0.96 0.88 0.76 0.64 0.62 0.67 0.73 0.76 0.75 0.72 0.70 0.70 0.62 0.44
0.07 0.08 0.09 0.13 0.18 0.19 0.19 0.19 0.20 0.21 0.22 0.21 0.22 0.24 0.29 0.37 0.48 0.56 0.58 0.61 0.66 0.64 0.57 0.55 0.60 0.64 0.72 0.77 0.82 0.91 0.88 0.83 0.73 0.57 0.55 0.59 0.66 0.72 0.70 0.64 0.64 0.63 0.54 0.42
0.06 0.06 0.07 0.16 0.29 0.34 0.34 0.33 0.33 0.32 0.29 0.28 0.31 0.35 0.41 0.46 0.56 0.67 0.70 0.68 0.69 0.74 0.70 0.61 0.58 0.60 0.65 0.69 0.72 0.77 0.75 0.75 0.71 0.53 0.48 0.59 0.65 0.69 0.65 0.56 0.57 0.54 0.44 0.38
0.03 0.03 0.04 0.07 0.14 0.22 0.27 0.28 0.29 0.32 0.34 0.38 0.48 0.58 0.65 0.64 0.67 0.79 0.89 0.79 0.65 0.68 0.67 0.60 0.53 0.54 0.56 0.66 0.70 0.72 0.69 0.67 0.69 0.57 0.48 0.54 0.62 0.64 0.59 0.51 0.46 0.40 0.34 0.31
0.02 0.03 0.05 0.07 0.08 0.09 0.11 0.13 0.20 0.30 0.38 0.43 0.50 0.63 0.77 0.83 0.88 0.88 0.81 0.79 0.72 0.71 0.64 0.56 0.50 0.47 0.47 0.54 0.65 0.69 0.67 0.65 0.67 0.63 0.54 0.53 0.57 0.56 0.52 0.43 0.34 0.28 0.24 0.23
0.01 0.02 0.03 0.03 0.04 0.06 0.08 0.11 0.17 0.27 0.37 0.44 0.53 0.72 0.88 0.93 1.02 1.16 0.98 0.72 0.67 0.68 0.63 0.53 0.48 0.44 0.41 0.40 0.53 0.60 0.59 0.62 0.64 0.62 0.56 0.49 0.45 0.44 0.42 0.33 0.25 0.21 0.21 0.21
0.02 0.02 0.02 0.02 0.05 0.07 0.11 0.14 0.18 0.25 0.34 0.41 0.49 0.66 0.88 1.04 1.00 0.91 0.86 0.74 0.64 0.57 0.56 0.50 0.40 0.37 0.36 0.33 0.39 0.46 0.50 0.54 0.51 0.48 0.44 0.38 0.38 0.37 0.30 0.25 0.19 0.16 0.19 0.19
0.03 0.03 0.04 0.05 0.10 0.17 0.24 0.30 0.34 0.38 0.46 0.49 0.50 0.56 0.67 0.90 1.05 0.89 0.70 0.64 0.59 0.51 0.49 0.48 0.40 0.35 0.31 0.27 0.27 0.32 0.37 0.40 0.38 0.37 0.34 0.31 0.30 0.28 0.23 0.19 0.15 0.13 0.15 0.16
0.04 0.05 0.06 0.09 0.16 0.27 0.40 0.52 0.61 0.65 0.74 0.79 0.70 0.64 0.65 0.72 0.82 0.81 0.67 0.57 0.52 0.49 0.43 0.41 0.37 0.32 0.28 0.25 0.22 0.25 0.32 0.36 0.36 0.33 0.28 0.28 0.26 0.22 0.21 0.19 0.12 0.10 0.09 0.10
0.07 0.07 0.09 0.13 0.20 0.32 0.48 0.63 0.76 0.84 0.92 1.01 0.96 0.81 0.74 0.72 0.74 0.73 0.66 0.57 0.53 0.50 0.46 0.41 0.37 0.33 0.30 0.27 0.24 0.24 0.29 0.33 0.34 0.32 0.30 0.31 0.30 0.25 0.19 0.14 0.10 0.07 0.06 0.06